Bloomington, IL

8:57 PM CDT on August 27, 2016 (GMT -0500)
Central Ill Regional

Weather History for KBMI - February, 2015

Change the Weather History Date:

Wednesday, February 18, 2015

  Actual Average Record
Temperature  
Mean Temperature 8 °F -  
Max Temperature 13 °F 13 °F 59 °F (1997)
Min Temperature 1 °F 0 °F -1 °F (2006)
Degree Days  
Heating Degree Days 58    
Moisture  
Dew Point -1 °F    
Average Humidity 69    
Maximum Humidity 85    
Minimum Humidity 48    
Precipitation  
Precipitation 0.00 in - - ()
Sea Level Pressure  
Sea Level Pressure 30.10 in    
Wind  
Wind Speed 16 mph (NW)    
Max Wind Speed 26 mph    
Max Gust Speed 31 mph    
Visibility 8 miles    
Events Snow    
Averages and records for this station are not official NWS values.
T = Trace of Precipitation, MM = Missing Value Source: NWS Daily Summary

Daily Weather History Graph

Daily Weather History Graph

Search for Another Location

Airport or City:

Trip Planner

Search our weather history database for the weather conditions in past years. The results will help you decide how hot, cold, wet, or windy it might be!

Date:

Astronomy

Feb. 18, 2015 Rise Set
Actual Time 6:45 AM CST 5:34 PM CST
Civil Twilight 6:17 AM CST 6:02 PM CST
Nautical Twilight 5:45 AM CST 6:33 PM CST
Astronomical Twilight 5:14 AM CST 7:05 PM CST
Moon 6:15 AM CST (2/18) 5:35 PM CST (2/18)
Length of Visible Light 11h 44m
Length of Day
10h 48m
Waning Crescent, 0% of the Moon is Illuminated
Feb 18
Waning Crescent
Feb 18
New
Feb 25
First Quarter
Mar 5
Full
Mar 13
Last Quarter

Hourly Weather History & Observations

Time (CST) Temp. Windchill Dew Point Humidity Pressure Visibility Wind Dir Wind Speed Gust Speed Precip Events Conditions
12:56 AM 13.1 °F -2.0 °F 3.0 °F 64% 30.00 in 10.0 mi NW 13.8 mph - N/A   Partly Cloudy
1:56 AM 13.1 °F -0.7 °F 4.1 °F 67% 29.98 in 10.0 mi NW 11.5 mph - N/A   Partly Cloudy
2:21 AM 12.2 °F -1.0 °F 6.8 °F 79% 29.90 in 7.0 mi NW 10.4 mph - 0.00 in Snow Light Snow
2:56 AM 12.0 °F -0.4 °F 7.2 °F 81% 29.97 in 4.0 mi NW 9.2 mph - 0.00 in Snow Light Snow
3:34 AM 12.2 °F -1.0 °F 8.6 °F 85% 29.88 in 4.0 mi NW 10.4 mph - 0.00 in Snow Light Snow
3:56 AM 12.0 °F -0.4 °F 8.1 °F 84% 29.96 in 9.0 mi NW 9.2 mph - 0.00 in Snow Light Snow
4:29 AM 12.2 °F -4.3 °F 6.8 °F 79% 29.89 in 5.0 mi WNW 16.1 mph 20.7 mph 0.00 in Snow Light Snow
4:49 AM 10.4 °F -7.7 °F 6.8 °F 85% 29.90 in 8.0 mi NW 18.4 mph 23.0 mph 0.00 in Snow Light Snow
4:56 AM 11.1 °F -7.2 °F 4.1 °F 73% 29.98 in 7.0 mi NW 19.6 mph - 0.00 in Snow Light Snow
5:07 AM 10.4 °F -5.4 °F 3.2 °F 73% 29.91 in 10.0 mi NW 13.8 mph - 0.00 in   Scattered Clouds
5:56 AM 9.1 °F -6.4 °F 1.0 °F 70% 30.01 in 8.0 mi NW 12.7 mph - 0.00 in Snow Light Snow
6:56 AM 8.1 °F -9.6 °F 2.1 °F 77% 30.03 in 7.0 mi NW 16.1 mph - 0.00 in   Mostly Cloudy
6:59 AM 8.6 °F -8.9 °F 1.4 °F 73% 29.94 in 7.0 mi NW 16.1 mph - N/A   Mostly Cloudy
7:05 AM 8.6 °F -8.3 °F 1.4 °F 73% 29.95 in 2.5 mi NW 15.0 mph - 0.00 in Snow Light Snow
7:07 AM 8.6 °F -7.7 °F 3.2 °F 79% 29.95 in 1.5 mi NW 13.8 mph - 0.00 in Snow Light Snow
7:09 AM 8.6 °F -7.7 °F 3.2 °F 79% 29.95 in 1.0 mi NW 13.8 mph - 0.00 in Snow Light Snow
7:40 AM 8.6 °F -11.0 °F 3.2 °F 79% 29.97 in 0.8 mi NW 20.7 mph - 0.00 in Snow Light Snow
7:56 AM 7.2 °F -13.8 °F 3.0 °F 83% 30.07 in 0.8 mi NW 23.0 mph - 0.00 in Snow Light Snow
8:00 AM 6.8 °F -12.9 °F 1.4 °F 79% 29.99 in 3.0 mi NW 19.6 mph - 0.00 in Snow Light Snow
8:10 AM 6.8 °F -13.8 °F -0.4 °F 72% 29.99 in 3.0 mi NW 21.9 mph - 0.00 in Snow Light Snow
8:19 AM 6.8 °F -13.8 °F -0.4 °F 72% 30.00 in 10.0 mi NW 21.9 mph 29.9 mph 0.00 in Snow Light Snow
8:56 AM 5.0 °F -16.2 °F -2.9 °F 70% 30.12 in 10.0 mi NW 21.9 mph 28.8 mph 0.00 in   Partly Cloudy
9:56 AM 6.1 °F -13.8 °F -4.0 °F 63% 30.14 in 10.0 mi NW 19.6 mph 28.8 mph N/A   Scattered Clouds
10:56 AM 7.2 °F -14.2 °F -2.9 °F 63% 30.18 in 10.0 mi WNW 24.2 mph 28.8 mph N/A   Scattered Clouds
11:56 AM 7.2 °F -14.6 °F -2.9 °F 63% 30.21 in 10.0 mi WNW 25.3 mph 29.9 mph N/A   Scattered Clouds
12:56 PM 7.2 °F -13.3 °F -4.0 °F 60% 30.22 in 7.0 mi NW 21.9 mph 29.9 mph 0.00 in Snow Light Snow
1:56 PM 8.1 °F -12.6 °F -6.9 °F 51% 30.24 in 10.0 mi WNW 23.0 mph 31.1 mph 0.00 in   Mostly Cloudy
2:45 PM 8.6 °F -12.3 °F -7.6 °F 48% 30.16 in 10.0 mi NW 24.2 mph 28.8 mph N/A   Scattered Clouds
2:56 PM 8.1 °F -13.8 °F -8.0 °F 48% 30.26 in 10.0 mi WNW 26.5 mph - N/A   Scattered Clouds
3:56 PM 7.2 °F -12.9 °F -6.0 °F 55% 30.27 in 10.0 mi NW 20.7 mph 29.9 mph N/A   Mostly Cloudy
4:56 PM 6.1 °F -12.8 °F -2.9 °F 67% 30.30 in 9.0 mi NW 17.3 mph 21.9 mph 0.00 in Snow Light Snow
5:56 PM 5.0 °F -14.7 °F -8.0 °F 55% 30.33 in 10.0 mi NW 18.4 mph 27.6 mph 0.00 in   Partly Cloudy
6:56 PM 4.1 °F -15.9 °F -8.0 °F 57% 30.35 in 10.0 mi NW 18.4 mph 28.8 mph N/A   Clear
7:56 PM 3.0 °F -16.1 °F -8.0 °F 60% 30.37 in 10.0 mi NW 16.1 mph - N/A   Clear
8:56 PM 3.0 °F -16.7 °F -6.0 °F 66% 30.38 in 10.0 mi NW 17.3 mph - N/A   Clear
9:56 PM 2.1 °F -16.6 °F -6.9 °F 66% 30.39 in 10.0 mi NW 15.0 mph - N/A   Clear
10:56 PM 2.1 °F -15.2 °F -8.0 °F 63% 30.39 in 10.0 mi NW 12.7 mph - N/A   Clear
11:56 PM 1.0 °F -20.4 °F -8.0 °F 66% 30.39 in 10.0 mi NW 19.6 mph 25.3 mph N/A   Clear